Weather History for KHBR - February, 2013

Change the Weather History Date:

Wednesday, February 27, 2013

  Actual Average Record
Temperature  
Mean Temperature 37 °F -  
Max Temperature 46 °F 53 °F 84 °F (2011)
Min Temperature 28 °F 30 °F 12 °F (2002)
Degree Days  
Heating Degree Days 28    
Moisture  
Dew Point 27 °F    
Average Humidity 72    
Maximum Humidity 92    
Minimum Humidity 51    
Precipitation  
Precipitation 0.00 in - - ()
Sea Level Pressure  
Sea Level Pressure 30.17 in    
Wind  
Wind Speed 12 mph (NNW)    
Max Wind Speed 31 mph    
Max Gust Speed 36 mph    
Visibility 10 miles    
Events      
Averages and records for this station are not official NWS values.
T = Trace of Precipitation, MM = Missing Value Source: NWS Daily Summary

Daily Weather History Graph

Daily Weather History Graph

Search for Another Location

Airport or City:

Trip Planner

Search our weather history database for the weather conditions in past years. The results will help you decide how hot, cold, wet, or windy it might be!

Date:

Astronomy

Feb. 27, 2013 Rise Set
Actual Time 7:07 AM CST 6:30 PM CST
Civil Twilight 6:42 AM CST 6:55 PM CST
Nautical Twilight 6:13 AM CST 7:25 PM CST
Astronomical Twilight 5:43 AM CST 7:54 PM CST
Moon 8:45 PM CST (2/27) 7:50 AM CST (2/27)
Length of Visible Light 12h 13m
Length of Day
11h 22m
Waning Gibbous, 96% of the Moon is Illuminated
Feb 27
Waning Gibbous
Mar 4
Last Quarter
Mar 11
New
Mar 19
First Quarter
Mar 27
Full

Hourly Weather History & Observations

Time (CST) Temp. Windchill Dew Point Humidity Pressure Visibility Wind Dir Wind Speed Gust Speed Precip Events Conditions
12:53 AM 34.0 °F 28.8 °F 28.0 °F 79% 29.99 in 10.0 mi NNW 5.8 mph - N/A   Overcast
1:53 AM 34.0 °F 26.6 °F 27.0 °F 75% 30.00 in 10.0 mi North 9.2 mph - N/A   Overcast
2:53 AM 33.1 °F 24.9 °F 26.1 °F 75% 30.01 in 10.0 mi North 10.4 mph - N/A   Mostly Cloudy
3:53 AM 30.9 °F 21.7 °F 25.0 °F 79% 30.03 in 10.0 mi North 11.5 mph - N/A   Clear
4:53 AM 30.0 °F 22.4 °F 24.1 °F 79% 30.05 in 10.0 mi NNW 8.1 mph - N/A   Clear
5:53 AM 28.9 °F 21.1 °F 24.1 °F 82% 30.08 in 10.0 mi North 8.1 mph - N/A   Clear
6:53 AM 28.0 °F 20.8 °F 23.0 °F 81% 30.11 in 10.0 mi NNW 6.9 mph - N/A   Clear
7:53 AM 30.0 °F 22.4 °F 24.1 °F 79% 30.14 in 10.0 mi NNW 8.1 mph - N/A   Clear
8:53 AM 33.8 °F 24.3 °F 24.8 °F 70% 30.14 in 10.0 mi NNW 13.8 mph - N/A   Clear
9:53 AM 37.0 °F 28.1 °F 26.1 °F 65% 30.19 in 10.0 mi NNW 15.0 mph - N/A   Clear
10:53 AM 39.9 °F 30.5 °F 27.0 °F 60% 30.20 in 10.0 mi NNW 19.6 mph 26.5 mph N/A   Clear
11:53 AM 43.0 °F 33.3 °F 26.1 °F 51% 30.22 in 10.0 mi North 25.3 mph 33.4 mph N/A   Clear
12:53 PM 45.0 °F 35.6 °F 28.0 °F 52% 30.21 in 10.0 mi North 27.6 mph 34.5 mph N/A   Clear
1:53 PM 45.0 °F 35.1 °F 30.9 °F 58% 30.21 in 10.0 mi NNW 31.1 mph 35.7 mph N/A   Partly Cloudy
2:53 PM 46.0 °F 37.8 °F 28.9 °F 51% 30.22 in 10.0 mi North 23.0 mph 31.1 mph N/A   Partly Cloudy
3:53 PM 46.0 °F 37.6 °F 30.9 °F 56% 30.21 in 10.0 mi NNW 24.2 mph 29.9 mph N/A   Scattered Clouds
4:53 PM 45.0 °F 37.4 °F 30.9 °F 58% 30.22 in 10.0 mi North 18.4 mph - N/A   Mostly Cloudy
5:53 PM 43.0 °F 34.8 °F 30.0 °F 60% 30.25 in 10.0 mi NNW 18.4 mph - N/A   Overcast
6:53 PM 37.9 °F 31.5 °F 30.0 °F 73% 30.27 in 10.0 mi North 9.2 mph - N/A   Clear
7:53 PM 34.0 °F 28.8 °F 28.9 °F 82% 30.29 in 10.0 mi NNW 5.8 mph - N/A   Clear
8:53 PM 32.0 °F 24.8 °F 28.0 °F 85% 30.28 in 10.0 mi NNW 8.1 mph - N/A   Clear
9:53 PM 30.9 °F 26.2 °F 28.0 °F 89% 30.28 in 9.0 mi NNW 4.6 mph - N/A   Clear
10:53 PM 28.9 °F 21.1 °F 27.0 °F 92% 30.30 in 8.0 mi NW 8.1 mph - N/A   Clear
11:53 PM 28.9 °F 21.9 °F 26.1 °F 89% 30.29 in 8.0 mi West 6.9 mph - N/A   Clear